| time (UTC) | temp F | wind direction | speed MPH | gust MPH | rain 1hr in | rain 24hr in | rain mn in | humidity % | barometer mb |
| 20260902234531 | 61 | 248 | 5.0 | 18.0 | 0.00 | 0.00 | 0.00 | 90 | 1012.8 |
| 20260902233029 | 61 | 219 | 6.0 | 17.0 | 0.00 | 0.00 | 0.00 | 91 | 1012.8 |
| 20260902231525 | 62 | 254 | 4.0 | 15.0 | 0.00 | 0.00 | 0.00 | 90 | 1012.8 |
| 20260902230024 | 62 | 244 | 4.0 | 13.0 | 0.00 | 0.00 | 0.00 | 90 | 1012.8 |
| 20260902224523 | 62 | 252 | 5.0 | 14.0 | 0.00 | 0.00 | 0.00 | 90 | 1012.8 |
| 20260902223028 | 62 | 250 | 3.0 | 12.0 | 0.00 | 0.00 | 0.00 | 90 | 1012.7 |
| 20260902221519 | 62 | 237 | 4.0 | 20.0 | 0.00 | 0.00 | 0.00 | 91 | 1012.7 |
| 20260902220020 | 62 | 224 | 4.0 | 14.0 | 0.00 | 0.00 | 0.00 | 92 | 1012.6 |
| 20260902214515 | 63 | 251 | 4.0 | 12.0 | 0.00 | 0.00 | 0.00 | 93 | 1012.6 |
| 20260902213014 | 63 | 214 | 4.0 | 9.0 | 0.00 | 0.00 | 0.00 | 93 | 1012.6 |
| 20260902211514 | 63 | 251 | 5.0 | 11.0 | 0.00 | 0.00 | 0.00 | 92 | 1012.6 |
| 20260902210113 | 63 | 244 | 5.0 | 12.0 | 0.00 | 0.00 | 0.00 | 92 | 1012.7 |
| 20260902204512 | 63 | 211 | 3.0 | 10.0 | 0.00 | 0.00 | 0.00 | 92 | 1012.6 |
| 20260902203012 | 63 | 236 | 4.0 | 11.0 | 0.00 | 0.00 | 0.00 | 92 | 1012.5 |
| 20260902201518 | 63 | 188 | 5.0 | 11.0 | 0.00 | 0.00 | 0.00 | 92 | 1012.6 |
| 20260902200011 | 63 | 225 | 4.0 | 11.0 | 0.00 | 0.00 | 0.00 | 91 | 1012.8 |
| 20260902194516 | 64 | 246 | 4.0 | 12.0 | 0.00 | 0.00 | 0.00 | 91 | 1012.7 |
| 20260902193011 | 64 | 232 | 4.0 | 10.0 | 0.00 | 0.00 | 0.00 | 91 | 1012.7 |
| 20260902191513 | 64 | 223 | 4.0 | 11.0 | 0.00 | 0.00 | 0.00 | 90 | 1012.7 |
| 20260902190009 | 64 | 220 | 4.0 | 10.0 | 0.00 | 0.00 | 0.00 | 90 | 1012.7 |
| 20260902184508 | 64 | 222 | 3.0 | 10.0 | 0.00 | 0.00 | 0.00 | 91 | 1012.7 |
| 20260902183009 | 64 | 248 | 3.0 | 7.0 | 0.00 | 0.00 | 0.00 | 92 | 1012.6 |
| 20260902181507 | 64 | 205 | 4.0 | 9.0 | 0.00 | 0.00 | 0.00 | 91 | 1012.6 |
| 20260902180008 | 64 | 199 | 3.0 | 8.0 | 0.00 | 0.00 | 0.00 | 91 | 1012.6 |
| 20260902174506 | 64 | 206 | 2.0 | 7.0 | 0.00 | 0.00 | 0.00 | 90 | 1012.7 |
| 20260902173005 | 65 | 226 | 3.0 | 8.0 | 0.00 | 0.00 | 0.00 | 91 | 1012.6 |
| 20260902171504 | 65 | 216 | 3.0 | 7.0 | 0.00 | 0.00 | 0.00 | 91 | 1012.8 |
| 20260902170004 | 65 | 206 | 4.0 | 9.0 | 0.00 | 0.00 | 0.00 | 91 | 1012.7 |
| 20260902164503 | 65 | 198 | 4.0 | 11.0 | 0.00 | 0.00 | 0.00 | 91 | 1012.6 |
| 20260902163003 | 65 | 209 | 6.0 | 14.0 | 0.00 | 0.00 | 0.00 | 90 | 1012.7 |
| 20260902161503 | 65 | 225 | 4.0 | 12.0 | 0.00 | 0.00 | 0.00 | 90 | 1012.7 |
| 20260902160004 | 65 | 173 | 5.0 | 12.0 | 0.00 | 0.00 | 0.00 | 90 | 1012.8 |
| 20260902154501 | 65 | 191 | 7.0 | 14.0 | 0.00 | 0.00 | 0.00 | 90 | 1012.9 |
| 20260902153001 | 65 | 206 | 5.0 | 15.0 | 0.00 | 0.00 | 0.00 | 90 | 1012.9 |
| 20260902151609 | 65 | 211 | 6.0 | 20.0 | 0.00 | 0.00 | 0.00 | 89 | 1013.1 |
| 20260902150100 | 66 | 181 | 4.0 | 16.0 | 0.00 | 0.00 | 0.00 | 88 | 1013.2 |
| 20260902144600 | 66 | 188 | 6.0 | 12.0 | 0.00 | 0.00 | 0.00 | 88 | 1013.2 |
| 20260902143059 | 66 | 234 | 6.0 | 13.0 | 0.00 | 0.00 | 0.00 | 87 | 1013.3 |
| 20260902141558 | 66 | 199 | 5.0 | 15.0 | 0.00 | 0.00 | 0.00 | 87 | 1013.3 |
| 20260902140058 | 66 | 185 | 5.0 | 11.0 | 0.00 | 0.00 | 0.00 | 87 | 1013.3 |
| 20260902134557 | 66 | 194 | 4.0 | 10.0 | 0.00 | 0.00 | 0.00 | 86 | 1013.3 |
| 20260902133106 | 66 | 256 | 3.0 | 9.0 | 0.00 | 0.00 | 0.00 | 84 | 1013.5 |
| 20260902131555 | 67 | 209 | 3.0 | 9.0 | 0.00 | 0.00 | 0.00 | 87 | 1013.4 |
| 20260902130053 | 66 | 252 | 3.0 | 10.0 | 0.00 | 0.00 | 0.00 | 86 | 1013.6 |
| 20260902124549 | 66 | 222 | 3.0 | 8.0 | 0.00 | 0.00 | 0.00 | 86 | 1013.6 |
| 20260902123053 | 65 | 217 | 3.0 | 10.0 | 0.00 | 0.00 | 0.00 | 87 | 1013.7 |
| 20260902121546 | 65 | 227 | 4.0 | 11.0 | 0.00 | 0.00 | 0.00 | 87 | 1013.8 |
| 20260902120047 | 65 | 219 | 4.0 | 7.0 | 0.00 | 0.00 | 0.00 | 87 | 1013.8 |
| 20260902114552 | 64 | 237 | 4.0 | 8.0 | 0.00 | 0.00 | 0.00 | 87 | 1014.0 |
| 20260902113044 | 64 | 221 | 3.0 | 8.0 | 0.00 | 0.00 | 0.00 | 86 | 1014.0 |
| 20260902111547 | 64 | 241 | 3.0 | 10.0 | 0.00 | 0.00 | 0.00 | 86 | 1014.1 |
| 20260902110057 | 64 | 235 | 3.0 | 9.0 | 0.00 | 0.00 | 0.00 | 86 | 1014.2 |
| 20260902104540 | 64 | 235 | 3.0 | 9.0 | 0.00 | 0.00 | 0.00 | 87 | 1014.2 |
| 20260902103041 | 63 | 251 | 4.0 | 11.0 | 0.00 | 0.00 | 0.00 | 87 | 1014.3 |
| 20260902101541 | 63 | 242 | 4.0 | 8.0 | 0.00 | 0.00 | 0.00 | 86 | 1014.2 |
| 20260902100037 | 63 | 244 | 4.0 | 9.0 | 0.00 | 0.00 | 0.00 | 86 | 1014.2 |
| 20260902094543 | 63 | 219 | 2.0 | 9.0 | 0.00 | 0.00 | 0.00 | 87 | 1014.2 |
| 20260902093035 | 62 | 219 | 2.0 | 10.0 | 0.00 | 0.00 | 0.00 | 88 | 1014.0 |
| 20260902091532 | 62 | 252 | 2.0 | 9.0 | 0.00 | 0.00 | 0.00 | 89 | 1014.0 |
| 20260902090031 | 61 | 289 | 4.0 | 11.0 | 0.00 | 0.00 | 0.00 | 89 | 1013.8 |
| 20260902084537 | 61 | 221 | 4.0 | 10.0 | 0.00 | 0.00 | 0.00 | 88 | 1013.6 |
| 20260902083027 | 61 | 268 | 4.0 | 10.0 | 0.00 | 0.00 | 0.00 | 89 | 1013.7 |
| 20260902081526 | 61 | 248 | 3.0 | 10.0 | 0.00 | 0.00 | 0.00 | 88 | 1013.9 |
| 20260902080024 | 61 | 263 | 3.0 | 10.0 | 0.00 | 0.00 | 0.00 | 89 | 1013.7 |
| 20260902074523 | 61 | 255 | 3.0 | 9.0 | 0.00 | 0.00 | 0.00 | 88 | 1013.8 |
| 20260902073021 | 61 | 232 | 3.0 | 9.0 | 0.00 | 0.00 | 0.00 | 89 | 1013.7 |
| 20260902071531 | 61 | 238 | 1.0 | 10.0 | 0.00 | 0.00 | 0.00 | 89 | 1013.6 |
| 20260902070017 | 60 | 267 | 3.0 | 10.0 | 0.00 | 0.00 | 0.00 | 89 | 1013.5 |
| 20260902064617 | 61 | 277 | 2.0 | 10.0 | 0.00 | 0.00 | 0.00 | 89 | 1013.4 |
| 20260902063028 | 60 | 262 | 3.0 | 8.0 | 0.00 | 0.00 | 0.00 | 89 | 1013.3 |
| 20260902061514 | 60 | 277 | 3.0 | 9.0 | 0.00 | 0.00 | 0.00 | 89 | 1013.2 |
| 20260902060011 | 60 | 212 | 1.0 | 8.0 | 0.00 | 0.00 | 0.00 | 89 | 1013.2 |
| 20260902054519 | 60 | 289 | 1.0 | 6.0 | 0.00 | 0.00 | 0.00 | 89 | 1013.1 |
| 20260902053018 | 60 | 267 | 1.0 | 7.0 | 0.00 | 0.00 | 0.00 | 89 | 1012.9 |
| 20260902051509 | 60 | 259 | 1.0 | 7.0 | 0.00 | 0.00 | 0.00 | 89 | 1012.9 |
| 20260902050007 | 60 | 245 | 3.0 | 8.0 | 0.00 | 0.00 | 0.00 | 89 | 1012.8 |
| 20260902044503 | 60 | 313 | 1.0 | 8.0 | 0.00 | 0.00 | 0.00 | 89 | 1012.6 |
| 20260902043002 | 60 | 275 | 1.0 | 7.0 | 0.00 | 0.00 | 0.00 | 89 | 1012.5 |
| 20260902041501 | 60 | 275 | 1.0 | 6.0 | 0.00 | 0.00 | 0.00 | 89 | 1012.5 |
| 20260902034558 | 61 | 298 | 1.0 | 5.0 | 0.00 | 0.00 | 0.00 | 89 | 1012.4 |
| 20260902033107 | 61 | 242 | 1.0 | 5.0 | 0.00 | 0.00 | 0.00 | 89 | 1012.2 |
| 20260902031557 | 61 | 225 | 1.0 | 8.0 | 0.00 | 0.00 | 0.00 | 88 | 1012.3 |
| 20260902030057 | 61 | 273 | 1.0 | 8.0 | 0.00 | 0.00 | 0.00 | 88 | 1012.4 |
| 20260902024555 | 61 | 296 | 1.0 | 9.0 | 0.00 | 0.00 | 0.00 | 88 | 1012.2 |
| 20260902023055 | 61 | 237 | 0.0 | 3.0 | 0.00 | 0.00 | 0.00 | 89 | 1012.2 |
| 20260902021602 | 61 | 260 | 1.0 | 5.0 | 0.00 | 0.00 | 0.00 | 88 | 1012.1 |
| 20260902020053 | 61 | 311 | 1.0 | 11.0 | 0.00 | 0.00 | 0.00 | 88 | 1012.2 |
| 20260902014552 | 61 | 311 | 1.0 | 7.0 | 0.00 | 0.00 | 0.00 | 88 | 1012.1 |
| 20260902013053 | 62 | 288 | 2.0 | 10.0 | 0.00 | 0.00 | 0.00 | 88 | 1012.1 |
| 20260902011551 | 61 | 301 | 3.0 | 13.0 | 0.00 | 0.00 | 0.00 | 88 | 1011.9 |
| 20260902003100 | 62 | 298 | 1.0 | 10.0 | 0.00 | 0.00 | 0.00 | 87 | 1011.8 |